星链-32569 (STARLINK-32569)

导读 | 星芒AI

STARLINK-32569 是由 SpaceX 发射的星链(Starlink)卫星之一,属于其低轨卫星互联网星座计划的一部分。该卫星旨在为全球用户提供高速、低延迟的互联网服务,尤其在偏远和网络基础设施薄弱的地区。它运行在约 550 公里的轨道高度,采用可再生太阳能供电,并具备自动避障功能以减少太空碰撞风险。作为星链计划的组成部分,STARLINK-32569 有助于扩大全球互联网接入,促进数字包容性。

基本信息
目录编号:
61867
目录名称:
STARLINK-32569
国际标识:
2024-202Y
轨道中心:
EARTH
卫星名称:
星链-32569
卫星全名:
星链-32569 (STARLINK-32569)
卫星状态:
在轨 (已飞行358 天)
发射日期:
2024-11-07 UTC
国别 :
美国 (US)
星等 :
--
轨道信息
数据来源 国际轨道数据 AOE轨道数据
星历时间 2025-10-31T11:55:30+0800
10小时前
查看轨道信息
2025-10-31T08:00:00+0800
13小时前
查看轨道信息
半长轴 6861.158km 6861.197km
偏心率 0.000178 0.0003041
轨道倾角 43.000° 43.004°
近地点辐角 310.693° 313.659°
升交点赤经 249.885° 250.802°
平近点角 49.377° 225.899°
近地点 481.801km 480.975km
远地点 484.245km 485.149km
周期 94.266分钟 94.267分钟
每日圈数 15.275894 15.275764
详细信息
固有亮度:
5
最大亮度:
2.5
卫星平台:
Starlink V1.0
覆盖范围:
全球
运营商:
太空探索技术公司
运营商所在国:
美国
制造商(研发单位):
太空探索技术公司
制造商所在国:
美国
使用方式:
暂无
卫星简介
Starlink 计划是 SpaceX 推出的全球卫星互联网项目,通过发射低轨道卫星,为全球尤其是偏远地区提供高速、低延迟的互联网服务。自 2019 年起,Starlink 已部署数千颗卫星,旨在缩小全球数字鸿沟,推动互联网普及。该项目还为军事、航空等行业提供通信支持,带来广泛经济效益。
2D轨道图
3D轨道图
轨道高度分析图
轨道倾角分析图
轨道综合分析图
查看轨道综合分析图